Regional Weather Roundup
Issued by NWS Nashville, TN

Home | Current Version | Previous Version | Text Only | Print | Product List | Glossary On
Versions: 1 2 3 4 5 6 7 8 9 10 11 12 13 14 15 16 17 18 19 20 21 22 23 24 25 26 27 28 29 30 31 32 33 34 35 36 37 38 39 40 41 42 43 44 45 46 47 48 49 50
000
ASUS44 KOHX 181110
RWROHX
MIDDLE TENNESSEE HOURLY WEATHER ROUNDUP
NATIONAL WEATHER SERVICE NASHVILLE TN
600 AM CDT THU JUL 18 2019

NOTE: "FAIR" INDICATES FEW OR NO CLOUDS BELOW 12,000 FEET WITH
NO SIGNIFICANT WEATHER AND/OR OBSTRUCTIONS TO VISIBILITY.

* THESE REPORTS ARE NOT UNDER NWS QUALITY CONTROL AND MAY NOT
  REPORT WEATHER SUCH AS PRECIPITATION AND FOG.


TNZ005>011-023>034-057-059-062>066-078-080-181200
...NORTHERN MIDDLE TENNESSEE...

CITY           SKY/WX    TMP DP  RH WIND       PRES   REMARKS
CLARKSVILLE      N/A     72  71  97 CALM      30.01R
CROSSVILLE       N/A     70  68  93 VRB5      30.08S
GALLATIN       SUNNY     73  72  94 CALM      30.04S
LEBANON        CLEAR     73  70  88 CALM      30.00R
LIVINGSTON     CLEAR     73  72  94 VRB7G14   30.04R
NASHVILLE      MOCLDY    74  69  85 S3        30.02R
PORTLAND       CLEAR     72  72 100 CALM      30.01S
ROCKWOOD       FOG       72  72 100 CALM      30.06R VSB 0
SMYRNA           N/A     73  70  90 CALM      30.03R
SPARTA         PTCLDY    72  72 100 CALM      30.04R
WEST NASHVILLE CLEAR     72  70  94 CALM      30.00R
$$
TNZ056-058-060-061-075>077-079-093>097-181200
...SOUTHERN MIDDLE TENNESSEE...

CITY           SKY/WX    TMP DP  RH WIND       PRES   REMARKS
COLUMBIA       CLEAR     73  73 100 SW8       30.00R
FAYETTEVILLE   CLEAR     70  70 100 S6        30.04R
LAWRENCEBURG   CLEAR     72  70  94 CALM      30.04R
LEWISBURG      CLEAR     73  70  88 SW3       30.01R
MCMINNVILLE    CLEAR     72  70  94 SW5       30.04R
MURFREESBORO   CLEAR     73  70  88 S5        30.01R
PULASKI        PTCLDY    73  72  94 CALM      30.02R
SHELBYVILLE    CLEAR     72  70  94 CALM      30.03R
TULLAHOMA      CLEAR     70  68  94 S3        30.03S
WINCHESTER     CLEAR     72  70  94 CALM      30.04S
$$


...KEY TO REMARKS...
VSB - VISIBILITY IN MILES
WCI - WIND CHILL INDEX
HX  - HEAT INDEX




USA.gov is the U.S. government's official web portal to all federal, state and local government web resources and services.